Home > Weather > Mississauga > Past weeks

Flag for Canada Past Weather in Mississauga, Ontario, Canada — Yesterday and Last 2 Weeks

Now
79 °F

Broken clouds.


Feels Like: 81 °F
Forecast: 69 / 86 °F
Wind: 9 mph from East

Location: Toronto Pearson International Airport

Current Time: Jul 24, 2016 at 12:56:50 PM

Latest Report: Jul 24, 2016 at 12:00 PM


Visibility: 15 mi

Pressure: 29.99 "Hg

Humidity: 61%

Dew Point: 64 °F

Location of MississaugaLocation

Past Weather in Mississauga — Graph

°F

Mississauga Temperature Yesterday

Maximum temperature yesterday: 93 °F (at 4:00 PM)
Minimum temperature yesterday: 72 °F (at 4:00 AM)
Average temperature yesterday: 82 °F

High & Low Weather Summary for the Past Weeks

 TemperatureHumidityPressure
High95 °F (Jul 13, 3:00 PM)94% (Jul 14, 1:00 AM)30.28 "Hg (Jul 14, 1:00 AM)
Low57 °F (Jul 17, 5:00 AM)26% (Jul 22, 6:00 PM)29.71 "Hg (Jul 14, 6:00 PM)
Average75 °F57%29.97 "Hg
* Reported Jul 9 11:00 AM — Jul 24 11:00 AM, Mississauga, Weather by CustomWeather, © 2016

Note: Actual official high and low records may vary slightly from our data, if they occured in-between our weather recording intervals... More about our weather records

Advertising

Mississauga Weather History for the Previous 24 Hours

Scroll right to see more
 ConditionsComfort  
Time TempWeatherWind HumidityBarometerVisibility
11:00 AM
Sun, Jul 24
75 °FOvercast.8 mph65%30.01 "Hg15 mi
10:00 AM75 °FBroken clouds.8 mph61%30.01 "Hg15 mi
9:00 AM75 °FPartly sunny.12 mph61%30.01 "Hg15 mi
8:00 AM75 °FPartly sunny.8 mph57%30.01 "Hg15 mi
7:00 AM72 °FBroken clouds.5 mph65%30.01 "Hg15 mi
6:00 AM68 °FPassing clouds.2 mph73%30.01 "Hg15 mi
5:00 AM70 °FPassing clouds.3 mph69%30.00 "Hg15 mi
4:00 AM70 °FPassing clouds.6 mph69%30.00 "Hg15 mi
3:00 AM72 °FPassing clouds.5 mph65%29.99 "Hg15 mi
2:00 AM73 °FPassing clouds.7 mph61%29.99 "Hg15 mi
1:00 AM73 °FPassing clouds.10 mph61%29.99 "Hg15 mi
12:00 AM75 °FPassing clouds.7 mph54%29.98 "Hg15 mi
11:00 PM
Sat, Jul 23
77 °FPassing clouds.10 mph51%29.98 "Hg15 mi
10:00 PM79 °FPassing clouds.14 mph48%29.96 "Hg15 mi
9:00 PM81 °FScattered clouds.12 mph45%29.94 "Hg15 mi
8:00 PM84 °FScattered clouds.16 mph35%29.92 "Hg15 mi
7:00 PM86 °FPassing clouds.15 mph38%29.91 "Hg15 mi
6:00 PM90 °FPassing clouds.15 mph36%29.90 "Hg15 mi
5:00 PM91 °FPassing clouds.16 mph30%29.89 "Hg15 mi
4:00 PM93 °FScattered clouds.14 mph26%29.90 "Hg15 mi
3:00 PM90 °FPartly sunny.9 mph31%29.90 "Hg15 mi
2:00 PM91 °FPartly sunny.15 mph30%29.90 "Hg15 mi
1:00 PM90 °FPartly sunny.18 mph29%29.91 "Hg15 mi
12:00 PM90 °FPassing clouds.16 mph31%29.91 "Hg15 mi
Weather by CustomWeather, © 2016

See weather overviewHow to use our weather pages